This is the latest recevied weather packets stored in our database for station/object EA1HEH-13. If no packets are shown the sender has not sent any weather packets the latest 10 day(s).
| Time | Temp. | Humidity | Pressure | Rain* | Wind** | Luminosity | Snow |
|---|---|---|---|---|---|---|---|
| 1777481136 | 17.78° C | 51% | 928.6 hPa | - | - | - | - |
| 1777480536 | 18.89° C | 47% | 928.7 hPa | - | - | - | - |
| 1777479936 | 19.44° C | 43% | 928.5 hPa | - | - | - | - |
| 1777479336 | 20° C | 43% | 928.3 hPa | - | - | - | - |
| 1777478736 | 20.56° C | 45% | 927.9 hPa | - | - | - | - |
| 1777478136 | 20° C | 45% | 927.9 hPa | - | - | - | - |
| 1777477536 | 20.56° C | 44% | 927.9 hPa | - | - | - | - |
| 1777476935 | 20.56° C | 44% | 927.5 hPa | - | - | - | - |
| 1777476336 | 20° C | 45% | 927.6 hPa | - | - | - | - |
| 1777475739 | 20° C | 44% | 927.6 hPa | - | - | - | - |
| 1777475135 | 20° C | 44% | 927.9 hPa | - | - | - | - |
| 1777474535 | 20° C | 44% | 927.9 hPa | - | - | - | - |
| 1777473936 | 20° C | 44% | 927.8 hPa | - | - | - | - |
| 1777473336 | 20° C | 44% | 927.8 hPa | - | - | - | - |
| 1777472735 | 20° C | 44% | 927.8 hPa | - | - | - | - |
| 1777472135 | 20° C | 44% | 927.8 hPa | - | - | - | - |
| 1777471535 | 19.44° C | 45% | 927.9 hPa | - | - | - | - |
| 1777470936 | 19.44° C | 45% | 927.9 hPa | - | - | - | - |
| 1777470335 | 19.44° C | 45% | 928.1 hPa | - | - | - | - |
| 1777469735 | 18.89° C | 45% | 928.2 hPa | - | - | - | - |
| 1777469135 | 18.89° C | 45% | 928.1 hPa | - | - | - | - |
| 1777468535 | 18.89° C | 44% | 928 hPa | - | - | - | - |
| 1777467935 | 19.44° C | 44% | 928 hPa | - | - | - | - |
| 1777467335 | 19.44° C | 44% | 928 hPa | - | - | - | - |
| 1777466735 | 19.44° C | 44% | 928 hPa | - | - | - | - |
* Rain since midnight (hover to see other rain measurements)
** Current wind speed in m/s (hover to see current wind gust speed)